Regional Weather Roundup
Issued by NWS

Home | Current Version | Previous Version | Graphics & Text | Print | Product List | Glossary On
Versions: 1 2 3 4 5 6 7 8 9 10 11 12 13 14 15 16 17 18 19 20 21 22 23 24 25 26 27 28 29 30 31 32 33 34 35 36 37 38 39 40 41 42 43 44 45 46 47 48 49 50
000
ASUS43 KDMX 182106
RWRIA

WEATHER ROUNDUP FOR IOWA
NATIONAL WEATHER SERVICE DES MOINES IA
400 PM CDT WED OCT 18 2017

NOTE: "FAIR" INDICATES FEW OR NO CLOUDS BELOW 12,000 FEET WITH NO
SIGNIFICANT WEATHER AND/OR OBSTRUCTIONS TO VISIBILITY.

* - THESE STATIONS ARE NOT NWS STATIONS...THUS NOT UNDER NWS
QUALITY CONTROL.  THEY ALSO DO NOT REPORT WEATHER SUCH
AS PRECIPITATION OR FOG.

IAZ001>003-012>014-020>022-031>034-043>046-182200-
   NORTHWEST IOWA

CITY           SKY/WX    TMP DP  RH WIND       PRES   REMARKS
CARROLL *      SUNNY     93  70  46 SW13G18   29.91S HX  99
CHEROKEE *     SUNNY     71  40  33 NE7G17    29.94S
DENISON *      SUNNY     73  48  40 NW6G13    29.94R
LE MARS *      SUNNY     75  39  27 NE9       29.94R
ORANGE CITY *  SUNNY     75  37  25 N8G17     29.95R
SHELDON *      SUNNY     75  32  20 N9G20     29.93R
SIOUX CITY     SUNNY     73  45  36 NE10      29.94R
SPENCER        SUNNY     74  35  24 N14       29.93S
STORM LAKE *   SUNNY     70  43  37 N12       29.94S
$$

IAZ055>058-069>071-079>083-090>094-182200-
   SOUTHWEST IOWA

CITY           SKY/WX    TMP DP  RH WIND       PRES   REMARKS
ATLANTIC *     SUNNY     73  50  43 SW12      29.93R
AUDUBON *      SUNNY     73  48  40 SW9       29.94R
CLARINDA *     SUNNY     75  48  38 SW12      29.96S
COUNCIL BLFS * SUNNY     73  52  46 SW8G16    29.93R
CRESTON *      SUNNY     72  48  43 SW14      29.96S
HARLAN  *      SUNNY     73  48  40 SW13      29.96S
LAMONI         SUNNY     72  49  44 S15       29.96S
RED OAK *      SUNNY     73  50  43 S14       29.93S
SHENANDOAH *   SUNNY     75  48  38 S15       29.94S
$$

IAZ047>049-059>061-072>074-084-182200-
   CENTRAL IOWA

CITY           SKY/WX    TMP DP  RH WIND       PRES   REMARKS
AMES           SUNNY     74  50  42 SW17      29.92R
ANKENY *       SUNNY     73  50  43 S15G22    29.93F
BOONE *        SUNNY     75  48  38 SW16      29.91R
CHARITON *     SUNNY     73  48  40 S16       29.95R
DES MOINES     MOSUNNY   75  49  39 S16       29.92S
GRINNELL*      SUNNY     74  46  36 S14       29.96R
KNOXVILLE *    SUNNY     73  46  38 S16       29.93R
MARSHALLTOWN   SUNNY     73  49  42 S15G24    29.91S
NEWTON *       SUNNY     73  48  40 SW14G21   29.94R
PELLA *        SUNNY     75  46  35 S14       29.95S
PERRY *          N/A     77  44  30 SW10G17   29.92R
$$

IAZ004>006-015-016-023>025-035-036-182200-
   NORTH CENTRAL IOWA

CITY           SKY/WX    TMP DP  RH WIND       PRES   REMARKS
ALGONA *       SUNNY     72  41  33 N8G20     29.93R
CLARION *      SUNNY     75  48  38 SW10G20   29.91R
ESTHERVILLE    SUNNY     71  39  31 N14       29.92R
FORT DODGE *   MOSUNNY   75  50  41 W12       29.91S
MASON CITY     SUNNY     73  48  41 W13       29.92R
FOREST CITY *    N/A     72  46  40 NW10      29.91R
WEBSTER CITY * SUNNY     77  46  33 SW9G16    29.89S
IOWA FALLS *     N/A     75  47  36 SW12      29.92S
$$

IAZ007>011-017>019-026>030-037>042-050>054-066-182200-
   NORTHEAST IOWA

CITY           SKY/WX    TMP DP  RH WIND       PRES   REMARKS
CEDAR RAPIDS   SUNNY     73  46  38 S18G26    29.95S
CHARLES CITY * PTSUNNY   75  45  33 SW14G20   29.91R
CLINTON *      SUNNY     72  45  37 SW21      29.98F
DECORAH *      MOSUNNY   73  46  38 SW9G21    29.88S
DUBUQUE        SUNNY     70  45  40 SW21G30   29.95S
MONTICELLO *   SUNNY     73  45  35 SW18G24   29.95R
OELWEIN *      SUNNY     73  46  38 SW23G29   29.92F
WATERLOO       SUNNY     73  45  36 S16       29.90S
$$

IAZ064-065-067-068-078-182200-
   EAST CENTRAL IOWA

CITY           SKY/WX    TMP DP  RH WIND       PRES   REMARKS
DAVENPORT      SUNNY     73  44  35 S15       30.00F
IOWA CITY      SUNNY     74  47  38 S16       29.98S
MUSCATINE *    SUNNY     73  46  38 S15G21    29.99S
QUAD CITIES    SUNNY     74  44  34 SW15G23   29.98F
$$

IAZ062-063-075>077-085>089-095>099-182200-
   SOUTHEAST IOWA

CITY           SKY/WX    TMP DP  RH WIND       PRES   REMARKS
BURLINGTON     SUNNY     72  46  39 S15G22    30.01S
FAIRFIELD *    SUNNY     73  45  35 S17G24    29.97F
FORT MADISON * SUNNY     73  46  38 S8G17     30.02S
KEOKUK *       SUNNY     73  45  35 S10G21    30.01S
OSKALOOSA *      N/A     74  46  36 S16       29.95F
OTTUMWA        SUNNY     74  47  38 S17G23    29.95F
WASHINGTON *   SUNNY     73  46  38 S18       29.98F
$$

ABBREVIATIONS USED IN REMARKS
   TC - TEMPERATURES IN CELSIUS
  WCI - WIND CHILL INDEX
   HX - HEAT INDEX
  VSB - VISIBILITY
$$




USA.gov is the U.S. government's official web portal to all federal, state and local government web resources and services.